Flag for Mexico Weather past 2 weeks in Cancún, Quintana Roo, Mexico

Now
77 °F

Passing clouds.


Feels Like: 78 °F
Forecast: 82 / 89 °F
Wind: No wind

Location: Aerop. Internacional Merida - Yuc

Current Time: Aug 31, 2015 at 10:03:46 PM

Latest Report: Aug 31, 2015 at 8:47 PM


Visibility: 7 mi

Pressure: 29.97 "Hg

Humidity: 89%

Dew point: 73 °F

Location of CancúnLocation

Historic Weather in Cancún — Graph

°F

Cancún temperature yesterday

Maximum temperature yesterday: 93 °F (at 12:44 PM)
Minimum temperature yesterday: 77 °F (at 4:52 AM)
Average temperature yesterday: 84 °F

Past Weeks' High & Low Weather Summary

 TemperatureHumidityPressure
High99 °F (Aug 19, 3:46 PM)100% (Aug 16, 10:06 PM)30.07 "Hg (Aug 16, 10:06 PM)
Low34 °F (Aug 17, 7:03 PM)42% (Aug 19, 2:43 PM)29.75 "Hg (Aug 19, 3:46 PM)
Average83 °F78%29.93 "Hg
* Reported Aug 16 8:47 PM — Aug 31 8:47 PM, Cancún, Weather by CustomWeather, © 2015

Note: Actual official high and low records may vary slightly from our data, if they occured in-between our weather recording intervals... More about our weather records

Advertising

Cancún weather history for previous 24 hours

 ConditionsComfort  
Time TempWeatherWind HumidityBarometerVisibility
8:47 PM
Mon, Aug 31
77 °FPassing clouds.No wind89%29.97 "Hg7 mi
7:45 PM75 °FBroken clouds.No wind94%29.94 "Hg7 mi
5:45 PM79 °FPartly sunny.8 mph84%29.95 "Hg7 mi
4:46 PM82 °FPartly sunny.18 mph79%29.95 "Hg7 mi
3:46 PM79 °FThunderstorms. Broken clouds.7 mph89%29.94 "Hg7 mi
2:59 PM79 °FSleet. Partly sunny.8 mph89%29.95 "Hg4 mi
2:12 PM93 °FSleet. Partly sunny.9 mph53%29.93 "Hg7 mi
1:43 PM95 °FPartly sunny.12 mph53%29.94 "Hg7 mi
11:41 AM91 °FPartly sunny.5 mph63%29.98 "Hg7 mi
10:47 AM91 °FPartly sunny.5 mph63%29.98 "Hg7 mi
9:43 AM86 °FPartly sunny.5 mph75%29.94 "Hg6 mi
8:41 AM82 °FScattered clouds.5 mph89%29.95 "Hg7 mi
7:43 AM81 °FScattered clouds.3 mph94%29.94 "Hg6 mi
6:50 AM77 °FPassing clouds.No wind94%29.94 "Hg5 mi
5:52 AM77 °FPassing clouds.5 mph94%29.93 "Hg6 mi
4:50 AM79 °FPassing clouds.5 mph94%29.93 "Hg6 mi
3:50 AM79 °FPassing clouds.5 mph94%29.94 "Hg7 mi
2:55 AM79 °FPassing clouds.No wind89%29.93 "Hg7 mi
1:55 AM79 °FPassing clouds.No wind89%29.94 "Hg7 mi
12:55 AM81 °FPassing clouds.5 mph84%29.94 "Hg7 mi
11:46 PM
Sun, Aug 30
81 °FPassing clouds.No wind84%29.96 "Hg7 mi
10:46 PM81 °FPassing clouds.5 mph79%29.96 "Hg7 mi
Weather by CustomWeather, © 2015

See weather overviewHow to use our weather pages